Simultaneous Nadir Overpasses (SNOs) Predictions

Prediction of SNOs between METOP-A and TERRA Satellite Orbit:

Table of predicted SNOs for the next 14.0 days since TLE Epoch: 1/6/2012
Index Date Time (METOP-A) METOP-A Lat,Lon TERRA Lat,Lon Distance(km) Time Diff (sec)
1 01/09/2012 13:46:17 81.28, 20.04 81.27, 19.91 2.22 49
2 01/09/2012 14:36:57 -81.28,-172.40 -81.27,-172.53 2.44 24
3 01/12/2012 09:20:44 81.27, 86.26 81.27, 86.30 0.76 36
4 01/12/2012 10:11:23 -81.28,-105.75 -81.29,-105.73 0.78 37
5 01/15/2012 04:55:09 81.28, 152.90 81.28, 152.95 1.08 23
6 01/15/2012 05:45:49 -81.28, -39.46 -81.28, -39.44 0.43 50
7 01/18/2012 00:29:36 81.28,-140.82 81.27,-140.90 1.65 10
8 01/18/2012 01:20:15 -81.29, 27.25 -81.29, 27.11 2.27 63
